Time,TemperatureF,DewpointF,PressureIn,WindDirection,WindDirectionDegrees,WindSpeedMPH,WindSpeedGustMPH,Humidity,HourlyPrecipIn,Conditions,Clouds,dailyrainin,SoftwareType,DateUTC
2013-04-28 00:02:00,47.5,44.7,29.97,South,186,0.0,0.0,90,0.00,,CLR,0.00,VWS V14.01,2013-04-28 05:02:00,
2013-04-28 00:07:00,47.8,45.0,29.97,South,186,0.0,0.0,90,0.00,,CLR,0.00,VWS V14.01,2013-04-28 05:07:00,
2013-04-28 00:12:00,47.8,44.7,29.97,South,186,0.0,0.0,89,0.00,,CLR,0.00,VWS V14.01,2013-04-28 05:12:00,
2013-04-28 00:17:00,47.6,44.5,29.97,South,186,0.0,0.0,89,0.00,,CLR,0.00,VWS V14.01,2013-04-28 05:17:00,
2013-04-28 00:22:00,47.3,44.2,29.96,South,186,0.0,0.0,89,0.00,,CLR,0.00,VWS V14.01,2013-04-28 05:22:00,
2013-04-28 00:27:00,47.1,44.3,29.96,South,186,0.0,0.0,90,0.00,,CLR,0.00,VWS V14.01,2013-04-28 05:27:00,
2013-04-28 00:32:00,47.0,44.2,29.96,South,186,0.0,0.0,90,0.00,,CLR,0.00,VWS V14.01,2013-04-28 05:32:00,
2013-04-28 00:37:00,46.8,44.0,29.96,South,186,0.0,0.0,90,0.00,,CLR,0.00,VWS V14.01,2013-04-28 05:37:00,
2013-04-28 00:42:00,46.4,43.6,29.97,South,186,0.0,0.0,90,0.00,,CLR,0.00,VWS V14.01,2013-04-28 05:42:00,
2013-04-28 00:47:00,46.1,43.6,29.97,South,186,0.0,0.0,91,0.00,,CLR,0.00,VWS V14.01,2013-04-28 05:47:00,
2013-04-28 00:52:00,46.3,43.8,29.96,South,186,0.0,0.0,91,0.00,,CLR,0.00,VWS V14.01,2013-04-28 05:52:00,
2013-04-28 00:57:00,46.1,43.6,29.96,South,186,0.0,0.0,91,0.00,,CLR,0.00,VWS V14.01,2013-04-28 05:57:00,
2013-04-28 01:02:00,46.0,43.5,29.96,South,186,0.0,0.0,91,0.00,,CLR,0.00,VWS V14.01,2013-04-28 06:02:00,
2013-04-28 01:07:00,46.1,43.6,29.96,South,186,0.0,1.0,91,0.00,,CLR,0.00,VWS V14.01,2013-04-28 06:07:00,
2013-04-28 01:12:00,46.4,44.2,29.96,South,186,0.0,1.0,92,0.00,,CLR,0.00,VWS V14.01,2013-04-28 06:12:00,
2013-04-28 01:17:00,46.4,43.9,29.96,South,186,0.0,1.0,91,0.00,,CLR,0.00,VWS V14.01,2013-04-28 06:17:00,
2013-04-28 01:22:00,45.8,43.3,29.95,South,186,0.0,1.0,91,0.00,,CLR,0.00,VWS V14.01,2013-04-28 06:22:00,
2013-04-28 01:27:00,45.3,43.1,29.95,South,186,0.0,1.0,92,0.00,,CLR,0.00,VWS V14.01,2013-04-28 06:27:00,
2013-04-28 01:32:00,45.0,42.8,29.95,South,186,0.0,1.0,92,0.00,,CLR,0.00,VWS V14.01,2013-04-28 06:32:00,
2013-04-28 01:37:00,44.8,42.6,29.95,South,186,0.0,1.0,92,0.00,,CLR,0.00,VWS V14.01,2013-04-28 06:37:00,
2013-04-28 01:42:00,44.2,42.0,29.94,South,186,0.0,1.0,92,0.00,,CLR,0.00,VWS V14.01,2013-04-28 06:42:00,
2013-04-28 01:47:00,44.6,42.7,29.94,South,186,0.0,1.0,93,0.00,,CLR,0.00,VWS V14.01,2013-04-28 06:47:00,
2013-04-28 01:52:00,44.7,42.8,29.93,South,186,0.0,1.0,93,0.00,,CLR,0.00,VWS V14.01,2013-04-28 06:52:00,
2013-04-28 01:57:00,44.6,42.7,29.92,South,186,0.0,1.0,93,0.00,,CLR,0.00,VWS V14.01,2013-04-28 06:57:00,
2013-04-28 02:02:00,44.2,42.3,29.92,South,186,0.0,0.0,93,0.00,,CLR,0.00,VWS V14.01,2013-04-28 07:02:00,
2013-04-28 02:07:00,43.6,41.7,29.92,South,186,0.0,0.0,93,0.00,,CLR,0.00,VWS V14.01,2013-04-28 07:07:00,
2013-04-28 02:12:00,43.6,42.0,29.92,South,186,0.0,0.0,94,0.00,,CLR,0.00,VWS V14.01,2013-04-28 07:12:00,
2013-04-28 02:17:00,43.7,42.1,29.92,South,186,0.0,0.0,94,0.00,,CLR,0.00,VWS V14.01,2013-04-28 07:17:00,
2013-04-28 02:22:00,44.1,42.8,29.92,South,186,0.0,0.0,95,0.00,,CLR,0.00,VWS V14.01,2013-04-28 07:22:00,
2013-04-28 02:27:00,44.0,42.4,29.92,South,186,0.0,0.0,94,0.00,,CLR,0.00,VWS V14.01,2013-04-28 07:27:00,
2013-04-28 02:33:00,44.0,42.4,29.93,South,186,0.0,0.0,94,0.00,,CLR,0.00,VWS V14.01,2013-04-28 07:33:00,
2013-04-28 02:38:00,44.3,43.0,29.93,South,186,1.0,1.0,95,0.00,,CLR,0.00,VWS V14.01,2013-04-28 07:38:00,
2013-04-28 02:43:00,44.9,43.6,29.93,South,186,0.0,1.0,95,0.00,,CLR,0.00,VWS V14.01,2013-04-28 07:43:00,
2013-04-28 02:48:00,45.1,43.5,29.93,South,186,0.0,1.0,94,0.00,,CLR,0.00,VWS V14.01,2013-04-28 07:48:00,
2013-04-28 02:53:00,45.1,43.5,29.93,South,186,0.0,1.0,94,0.00,,CLR,0.00,VWS V14.01,2013-04-28 07:53:00,
2013-04-28 02:58:00,44.7,42.8,29.93,South,186,0.0,1.0,93,0.00,,CLR,0.00,VWS V14.01,2013-04-28 07:58:00,
2013-04-28 03:03:00,44.5,42.9,29.93,South,186,0.0,0.0,94,0.00,,CLR,0.00,VWS V14.01,2013-04-28 08:03:00,
2013-04-28 03:08:00,43.8,42.2,29.92,South,186,0.0,0.0,94,0.00,,CLR,0.00,VWS V14.01,2013-04-28 08:08:00,
2013-04-28 03:13:00,43.8,42.2,29.92,South,186,0.0,0.0,94,0.00,,CLR,0.00,VWS V14.01,2013-04-28 08:13:00,
2013-04-28 03:18:00,43.2,41.6,29.92,South,186,0.0,0.0,94,0.00,,CLR,0.00,VWS V14.01,2013-04-28 08:18:00,
2013-04-28 03:23:00,42.1,40.2,29.92,South,186,0.0,0.0,93,0.00,,CLR,0.00,VWS V14.01,2013-04-28 08:23:00,
2013-04-28 03:28:00,42.0,40.4,29.91,South,186,0.0,0.0,94,0.00,,CLR,0.00,VWS V14.01,2013-04-28 08:28:00,
2013-04-28 03:33:00,42.3,41.0,29.91,South,186,0.0,0.0,95,0.00,,CLR,0.00,VWS V14.01,2013-04-28 08:33:00,
2013-04-28 03:38:00,43.2,41.9,29.90,South,186,0.0,0.0,95,0.00,,CLR,0.00,VWS V14.01,2013-04-28 08:38:00,
2013-04-28 03:43:00,43.3,42.0,29.90,South,186,0.0,0.0,95,0.00,,CLR,0.00,VWS V14.01,2013-04-28 08:43:00,
2013-04-28 03:48:00,43.3,42.0,29.90,South,186,0.0,0.0,95,0.00,,CLR,0.00,VWS V14.01,2013-04-28 08:48:00,
2013-04-28 03:53:00,43.4,42.1,29.90,South,186,1.0,1.0,95,0.00,,CLR,0.00,VWS V14.01,2013-04-28 08:53:00,
2013-04-28 03:58:00,42.8,41.5,29.90,South,186,0.0,1.0,95,0.00,,CLR,0.00,VWS V14.01,2013-04-28 08:58:00,
2013-04-28 04:03:00,42.8,41.5,29.90,South,186,0.0,0.0,95,0.00,,CLR,0.00,VWS V14.01,2013-04-28 09:03:00,
2013-04-28 04:08:00,43.2,42.1,29.91,South,186,1.0,1.0,96,0.00,,CLR,0.00,VWS V14.01,2013-04-28 09:08:00,
2013-04-28 04:14:00,43.6,42.5,29.91,SW,225,0.0,2.0,96,0.00,,CLR,0.00,VWS V14.01,2013-04-28 09:14:00,
2013-04-28 04:19:00,43.8,42.5,29.91,SW,225,0.0,2.0,95,0.00,,CLR,0.00,VWS V14.01,2013-04-28 09:19:00,
2013-04-28 04:24:00,43.2,41.9,29.91,SW,225,0.0,2.0,95,0.00,,CLR,0.00,VWS V14.01,2013-04-28 09:24:00,
2013-04-28 04:29:00,42.9,41.6,29.91,SW,225,0.0,2.0,95,0.00,,CLR,0.00,VWS V14.01,2013-04-28 09:29:00,
2013-04-28 04:34:00,42.6,41.3,29.91,SW,225,0.0,2.0,95,0.00,,CLR,0.00,VWS V14.01,2013-04-28 09:34:00,
2013-04-28 04:39:00,42.5,41.2,29.91,SW,225,0.0,2.0,95,0.00,,CLR,0.00,VWS V14.01,2013-04-28 09:39:00,
2013-04-28 04:44:00,41.6,40.3,29.92,SW,225,0.0,2.0,95,0.00,,CLR,0.00,VWS V14.01,2013-04-28 09:44:00,
2013-04-28 04:49:00,41.9,40.8,29.92,SW,225,0.0,2.0,96,0.00,,CLR,0.00,VWS V14.01,2013-04-28 09:49:00,
2013-04-28 04:54:00,43.0,41.9,29.92,SW,225,0.0,2.0,96,0.00,,CLR,0.00,VWS V14.01,2013-04-28 09:54:00,
2013-04-28 04:59:00,43.1,42.0,29.92,SW,225,0.0,2.0,96,0.00,,CLR,0.00,VWS V14.01,2013-04-28 09:59:00,
2013-04-28 05:04:00,43.1,41.8,29.92,SW,225,0.0,0.0,95,0.00,,CLR,0.00,VWS V14.01,2013-04-28 10:04:00,
2013-04-28 05:09:00,43.4,42.1,29.92,SW,225,0.0,0.0,95,0.00,,CLR,0.00,VWS V14.01,2013-04-28 10:09:00,
2013-04-28 05:14:00,42.9,41.6,29.92,SW,225,0.0,0.0,95,0.00,,CLR,0.00,VWS V14.01,2013-04-28 10:14:00,
2013-04-28 05:19:00,42.5,41.2,29.92,SW,225,0.0,0.0,95,0.00,,CLR,0.00,VWS V14.01,2013-04-28 10:19:00,
2013-04-28 05:24:00,42.5,41.2,29.92,SW,225,0.0,0.0,95,0.00,,CLR,0.00,VWS V14.01,2013-04-28 10:24:00,
2013-04-28 05:29:00,42.4,41.1,29.92,SW,225,0.0,0.0,95,0.00,,CLR,0.00,VWS V14.01,2013-04-28 10:29:00,
2013-04-28 05:34:00,42.1,40.8,29.92,SW,225,0.0,0.0,95,0.00,,CLR,0.00,VWS V14.01,2013-04-28 10:34:00,
2013-04-28 05:39:00,41.6,40.3,29.92,SW,225,0.0,0.0,95,0.00,,CLR,0.00,VWS V14.01,2013-04-28 10:39:00,
2013-04-28 05:44:00,41.2,39.9,29.92,SW,225,0.0,0.0,95,0.00,,CLR,0.00,VWS V14.01,2013-04-28 10:44:00,
2013-04-28 05:49:00,40.7,39.4,29.92,SW,225,0.0,0.0,95,0.00,,CLR,0.00,VWS V14.01,2013-04-28 10:49:00,
2013-04-28 05:54:00,41.0,40.0,29.92,SW,225,0.0,0.0,96,0.00,,CLR,0.00,VWS V14.01,2013-04-28 10:54:00,
2013-04-28 05:59:00,40.5,39.2,29.92,SW,225,0.0,0.0,95,0.00,,CLR,0.00,VWS V14.01,2013-04-28 10:59:00,
2013-04-28 06:04:00,40.8,39.8,29.92,SW,225,0.0,0.0,96,0.00,,CLR,0.00,VWS V14.01,2013-04-28 11:04:00,
2013-04-28 06:10:00,41.1,40.0,29.92,SW,225,0.0,0.0,96,0.00,,CLR,0.00,VWS V14.01,2013-04-28 11:10:00,
2013-04-28 06:15:00,41.1,40.0,29.92,SW,225,0.0,0.0,96,0.00,,CLR,0.00,VWS V14.01,2013-04-28 11:15:00,
2013-04-28 06:20:00,40.9,39.8,29.92,SW,225,0.0,0.0,96,0.00,,CLR,0.00,VWS V14.01,2013-04-28 11:20:00,
2013-04-28 06:25:00,40.9,39.8,29.92,SW,225,0.0,0.0,96,0.00,,CLR,0.00,VWS V14.01,2013-04-28 11:25:00,
2013-04-28 06:30:00,40.6,39.5,29.92,SW,225,0.0,0.0,96,0.00,,CLR,0.00,VWS V14.01,2013-04-28 11:30:00,
2013-04-28 06:35:00,40.5,39.5,29.92,SW,225,0.0,0.0,96,0.00,,CLR,0.00,VWS V14.01,2013-04-28 11:35:00,
2013-04-28 06:40:00,40.7,39.7,29.92,SW,225,0.0,0.0,96,0.00,,CLR,0.00,VWS V14.01,2013-04-28 11:40:00,
2013-04-28 06:45:00,41.2,40.4,29.92,SW,225,0.0,0.0,97,0.00,,CLR,0.00,VWS V14.01,2013-04-28 11:45:00,
2013-04-28 06:50:00,41.4,40.3,29.92,SW,225,0.0,0.0,96,0.00,,CLR,0.00,VWS V14.01,2013-04-28 11:50:00,
2013-04-28 06:55:00,41.6,40.5,29.92,SW,225,0.0,0.0,96,0.00,,CLR,0.00,VWS V14.01,2013-04-28 11:55:00,
2013-04-28 07:00:00,41.8,41.0,29.92,SW,225,0.0,0.0,97,0.00,,CLR,0.00,VWS V14.01,2013-04-28 12:00:00,
2013-04-28 07:05:00,41.7,40.9,29.92,SW,225,0.0,0.0,97,0.00,,CLR,0.00,VWS V14.01,2013-04-28 12:05:00,
2013-04-28 07:10:00,42.1,41.3,29.92,SW,225,0.0,0.0,97,0.00,,CLR,0.00,VWS V14.01,2013-04-28 12:10:00,
2013-04-28 07:15:00,42.7,41.9,29.92,SW,225,0.0,0.0,97,0.00,,CLR,0.00,VWS V14.01,2013-04-28 12:15:00,
2013-04-28 07:20:00,43.5,42.7,29.92,SW,225,0.0,0.0,97,0.00,,CLR,0.00,VWS V14.01,2013-04-28 12:20:00,
2013-04-28 07:25:00,43.8,43.0,29.92,SW,225,0.0,0.0,97,0.00,,CLR,0.00,VWS V14.01,2013-04-28 12:25:00,
2013-04-28 07:30:00,44.4,43.6,29.92,SW,225,0.0,0.0,97,0.00,,CLR,0.00,VWS V14.01,2013-04-28 12:30:00,
2013-04-28 07:35:00,44.9,44.1,29.92,SW,225,0.0,0.0,97,0.00,,CLR,0.00,VWS V14.01,2013-04-28 12:35:00,
2013-04-28 07:40:00,45.5,44.7,29.92,SW,225,0.0,0.0,97,0.00,,CLR,0.00,VWS V14.01,2013-04-28 12:40:00,
2013-04-28 07:45:00,46.0,44.9,29.92,SW,225,0.0,0.0,96,0.00,,CLR,0.00,VWS V14.01,2013-04-28 12:45:00,
2013-04-28 07:50:00,46.9,45.8,29.92,SW,225,0.0,0.0,96,0.00,,CLR,0.00,VWS V14.01,2013-04-28 12:50:00,
2013-04-28 07:56:00,47.8,46.4,29.92,SW,225,0.0,0.0,95,0.00,,CLR,0.00,VWS V14.01,2013-04-28 12:56:00,
2013-04-28 08:01:00,48.4,46.8,29.92,SW,225,0.0,0.0,94,0.00,,CLR,0.00,VWS V14.01,2013-04-28 13:01:00,
2013-04-28 08:06:00,48.8,46.9,29.92,SW,225,0.0,0.0,93,0.00,,CLR,0.00,VWS V14.01,2013-04-28 13:06:00,
2013-04-28 08:11:00,49.2,47.3,29.92,SW,225,0.0,0.0,93,0.00,,CLR,0.00,VWS V14.01,2013-04-28 13:11:00,
2013-04-28 08:16:00,49.9,47.7,29.91,SW,225,0.0,0.0,92,0.00,,CLR,0.00,VWS V14.01,2013-04-28 13:16:00,
2013-04-28 08:21:00,50.5,48.0,29.91,SW,225,0.0,0.0,91,0.00,,CLR,0.00,VWS V14.01,2013-04-28 13:21:00,
2013-04-28 08:26:00,51.4,48.6,29.91,SW,225,0.0,0.0,90,0.00,,CLR,0.00,VWS V14.01,2013-04-28 13:26:00,
2013-04-28 08:31:00,51.8,48.7,29.91,SW,225,0.0,1.0,89,0.00,,CLR,0.00,VWS V14.01,2013-04-28 13:31:00,
2013-04-28 08:36:00,52.5,49.4,29.92,SW,225,0.0,1.0,89,0.00,,CLR,0.00,VWS V14.01,2013-04-28 13:36:00,
2013-04-28 08:41:00,53.0,49.5,29.92,SW,225,0.0,2.0,88,0.00,,CLR,0.00,VWS V14.01,2013-04-28 13:41:00,
2013-04-28 08:46:00,54.4,50.6,29.91,SW,225,3.0,4.0,87,0.00,,CLR,0.00,VWS V14.01,2013-04-28 13:46:00,
2013-04-28 08:51:00,55.9,51.1,29.91,WSW,251,4.0,5.0,84,0.00,,CLR,0.00,VWS V14.01,2013-04-28 13:51:00,
2013-04-28 08:56:00,56.7,50.3,29.91,SW,234,7.0,7.0,79,0.00,,CLR,0.00,VWS V14.01,2013-04-28 13:56:00,
2013-04-28 09:01:00,56.8,50.0,29.91,WSW,240,4.0,8.0,78,0.00,,CLR,0.00,VWS V14.01,2013-04-28 14:01:00,
2013-04-28 09:06:00,57.2,50.1,29.90,WSW,250,5.0,8.0,77,0.00,,CLR,0.00,VWS V14.01,2013-04-28 14:06:00,
2013-04-28 09:11:00,57.3,49.8,29.90,WSW,250,4.0,8.0,76,0.00,,CLR,0.00,VWS V14.01,2013-04-28 14:11:00,
2013-04-28 09:16:00,57.3,50.2,29.90,SSW,211,6.0,8.0,77,0.00,,CLR,0.00,VWS V14.01,2013-04-28 14:16:00,
2013-04-28 09:21:00,58.0,50.5,29.89,SSW,201,3.0,9.0,76,0.00,,CLR,0.00,VWS V14.01,2013-04-28 14:21:00,
2013-04-28 09:26:00,58.7,51.2,29.89,SW,227,5.0,9.0,76,0.00,,CLR,0.00,VWS V14.01,2013-04-28 14:26:00,
2013-04-28 09:31:00,59.3,51.0,29.89,SSW,196,3.0,9.0,74,0.00,,CLR,0.00,VWS V14.01,2013-04-28 14:31:00,
2013-04-28 09:36:00,60.0,51.0,29.89,SW,223,5.0,9.0,72,0.00,,CLR,0.00,VWS V14.01,2013-04-28 14:36:00,
2013-04-28 09:41:00,60.3,50.9,29.89,SW,235,4.0,9.0,71,0.00,,CLR,0.00,VWS V14.01,2013-04-28 14:41:00,
2013-04-28 09:46:00,60.9,50.3,29.89,WSW,254,5.0,9.0,68,0.00,,CLR,0.00,VWS V14.01,2013-04-28 14:46:00,
2013-04-28 09:51:00,61.0,50.0,29.88,SW,222,9.0,10.0,67,0.00,,CLR,0.00,VWS V14.01,2013-04-28 14:51:00,
2013-04-28 09:57:00,60.8,50.2,29.88,SSW,195,2.0,10.0,68,0.00,,CLR,0.00,VWS V14.01,2013-04-28 14:57:00,
2013-04-28 10:02:00,61.2,51.0,29.88,SSW,194,5.0,8.0,69,0.00,,CLR,0.00,VWS V14.01,2013-04-28 15:02:00,
2013-04-28 10:07:00,61.5,50.5,29.88,SW,227,7.0,9.0,67,0.00,,CLR,0.00,VWS V14.01,2013-04-28 15:07:00,
2013-04-28 10:12:00,62.2,51.1,29.88,WSW,239,5.0,9.0,67,0.00,,CLR,0.00,VWS V14.01,2013-04-28 15:12:00,
2013-04-28 10:17:00,62.1,50.2,29.88,SW,226,6.0,11.0,65,0.00,,CLR,0.00,VWS V14.01,2013-04-28 15:17:00,
2013-04-28 10:22:00,62.5,51.0,29.88,SSE,161,3.0,11.0,66,0.00,,CLR,0.00,VWS V14.01,2013-04-28 15:22:00,
2013-04-28 10:27:00,62.7,50.4,29.88,SSW,209,10.0,11.0,64,0.00,,CLR,0.00,VWS V14.01,2013-04-28 15:27:00,
2013-04-28 10:32:00,62.2,50.3,29.88,SW,230,8.0,11.0,65,0.00,,CLR,0.00,VWS V14.01,2013-04-28 15:32:00,
2013-04-28 10:37:00,62.4,50.1,29.88,SW,219,9.0,11.0,64,0.00,,CLR,0.00,VWS V14.01,2013-04-28 15:37:00,
2013-04-28 10:42:00,62.5,50.2,29.87,SW,232,2.0,11.0,64,0.00,,CLR,0.00,VWS V14.01,2013-04-28 15:42:00,
2013-04-28 10:47:00,63.5,49.8,29.87,SE,142,3.0,11.0,61,0.00,,CLR,0.00,VWS V14.01,2013-04-28 15:47:00,
2013-04-28 10:52:00,63.1,50.3,29.87,SW,216,8.0,11.0,63,0.00,,CLR,0.00,VWS V14.01,2013-04-28 15:52:00,
2013-04-28 10:57:00,63.6,49.9,29.87,South,180,1.0,12.0,61,0.00,,CLR,0.00,VWS V14.01,2013-04-28 15:57:00,
2013-04-28 11:02:00,63.5,49.8,29.87,SW,215,7.0,8.0,61,0.00,,CLR,0.00,VWS V14.01,2013-04-28 16:02:00,
2013-04-28 11:07:00,64.4,50.7,29.86,South,186,6.0,8.0,61,0.00,,CLR,0.00,VWS V14.01,2013-04-28 16:07:00,
2013-04-28 11:12:00,65.0,50.8,29.86,South,175,5.0,9.0,60,0.00,,CLR,0.00,VWS V14.01,2013-04-28 16:12:00,
2013-04-28 11:17:00,64.9,49.8,29.86,SSW,202,4.0,9.0,58,0.00,,CLR,0.00,VWS V14.01,2013-04-28 16:17:00,
2013-04-28 11:22:00,65.3,50.6,29.86,South,174,3.0,9.0,59,0.00,,CLR,0.00,VWS V14.01,2013-04-28 16:22:00,
2013-04-28 11:27:00,65.0,50.3,29.86,SW,222,6.0,10.0,59,0.00,,CLR,0.00,VWS V14.01,2013-04-28 16:27:00,
2013-04-28 11:32:00,65.4,51.2,29.87,SSW,213,7.0,10.0,60,0.00,,CLR,0.00,VWS V14.01,2013-04-28 16:32:00,
2013-04-28 11:37:00,65.4,50.2,29.87,South,186,2.0,10.0,58,0.00,,CLR,0.00,VWS V14.01,2013-04-28 16:37:00,
2013-04-28 11:42:00,65.5,50.3,29.87,SW,223,6.0,10.0,58,0.00,,CLR,0.00,VWS V14.01,2013-04-28 16:42:00,
2013-04-28 11:47:00,65.6,50.4,29.86,SW,223,5.0,10.0,58,0.00,,CLR,0.00,VWS V14.01,2013-04-28 16:47:00,
2013-04-28 11:52:00,66.0,50.8,29.86,SW,226,5.0,10.0,58,0.00,,CLR,0.00,VWS V14.01,2013-04-28 16:52:00,
2013-04-28 11:57:00,66.9,51.7,29.86,SSW,209,3.0,10.0,58,0.00,,CLR,0.00,VWS V14.01,2013-04-28 16:57:00,
2013-04-28 12:02:00,66.9,50.2,29.86,SSE,155,3.0,9.0,55,0.00,,CLR,0.00,VWS V14.01,2013-04-28 17:02:00,
2013-04-28 12:08:00,66.8,50.6,29.86,SW,221,3.0,9.0,56,0.00,,CLR,0.00,VWS V14.01,2013-04-28 17:08:00,
2013-04-28 12:13:00,68.1,52.8,29.86,SSW,207,4.0,15.0,58,0.00,,CLR,0.00,VWS V14.01,2013-04-28 17:13:00,
2013-04-28 12:18:00,67.6,50.9,29.86,SW,219,5.0,15.0,55,0.00,,CLR,0.00,VWS V14.01,2013-04-28 17:18:00,
2013-04-28 12:23:00,67.9,51.2,29.86,SSW,199,7.0,15.0,55,0.00,,CLR,0.00,VWS V14.01,2013-04-28 17:23:00,
2013-04-28 12:28:00,67.2,50.5,29.85,SW,232,5.0,15.0,55,0.00,,CLR,0.00,VWS V14.01,2013-04-28 17:28:00,
2013-04-28 12:33:00,68.7,50.9,29.84,SE,127,3.0,15.0,53,0.00,,CLR,0.00,VWS V14.01,2013-04-28 17:33:00,
2013-04-28 12:38:00,68.5,49.2,29.84,South,178,3.0,15.0,50,0.00,,CLR,0.00,VWS V14.01,2013-04-28 17:38:00,
2013-04-28 12:43:00,69.2,51.4,29.84,SSE,149,7.0,15.0,53,0.00,,CLR,0.00,VWS V14.01,2013-04-28 17:43:00,
2013-04-28 12:48:00,69.0,49.6,29.84,SSE,148,4.0,15.0,50,0.00,,CLR,0.00,VWS V14.01,2013-04-28 17:48:00,
2013-04-28 12:53:00,69.5,50.1,29.84,SSE,163,4.0,15.0,50,0.00,,CLR,0.00,VWS V14.01,2013-04-28 17:53:00,
2013-04-28 12:58:00,69.2,50.8,29.83,SSW,209,8.0,15.0,52,0.00,,CLR,0.00,VWS V14.01,2013-04-28 17:58:00,
2013-04-28 13:03:00,68.8,50.5,29.83,SSW,194,5.0,8.0,52,0.00,,CLR,0.00,VWS V14.01,2013-04-28 18:03:00,
2013-04-28 13:08:00,69.5,51.1,29.83,SW,226,5.0,9.0,52,0.00,,CLR,0.00,VWS V14.01,2013-04-28 18:08:00,
2013-04-28 13:13:00,69.8,49.2,29.83,South,181,4.0,9.0,48,0.00,,CLR,0.00,VWS V14.01,2013-04-28 18:13:00,
2013-04-28 13:18:00,69.3,48.8,29.83,SSW,211,5.0,13.0,48,0.00,,CLR,0.00,VWS V14.01,2013-04-28 18:18:00,
2013-04-28 13:23:00,69.6,48.5,29.83,South,184,7.0,13.0,47,0.00,,CLR,0.00,VWS V14.01,2013-04-28 18:23:00,
2013-04-28 13:28:00,69.8,50.3,29.83,SSW,193,6.0,15.0,50,0.00,,CLR,0.00,VWS V14.01,2013-04-28 18:28:00,
2013-04-28 13:33:00,70.8,50.2,29.82,SSW,200,4.0,15.0,48,0.00,,CLR,0.00,VWS V14.01,2013-04-28 18:33:00,
2013-04-28 13:38:00,70.6,50.5,29.82,SSW,198,2.0,15.0,49,0.00,,CLR,0.00,VWS V14.01,2013-04-28 18:38:00,
2013-04-28 13:43:00,70.0,51.1,29.82,South,169,5.0,15.0,51,0.00,,CLR,0.00,VWS V14.01,2013-04-28 18:43:00,
2013-04-28 13:48:00,71.7,49.8,29.82,South,169,6.0,15.0,46,0.00,,CLR,0.00,VWS V14.01,2013-04-28 18:48:00,
2013-04-28 13:53:00,71.7,49.8,29.82,SSW,194,5.0,15.0,46,0.00,,CLR,0.00,VWS V14.01,2013-04-28 18:53:00,
2013-04-28 13:58:00,72.0,49.5,29.82,West,261,6.0,15.0,45,0.00,,CLR,0.00,VWS V14.01,2013-04-28 18:58:00,
2013-04-28 14:03:00,71.5,50.2,29.82,SSW,209,7.0,15.0,47,0.00,,CLR,0.00,VWS V14.01,2013-04-28 19:03:00,
2013-04-28 14:09:00,71.9,48.8,29.81,SSE,156,5.0,15.0,44,0.00,,CLR,0.00,VWS V14.01,2013-04-28 19:09:00,
2013-04-28 14:13:00,72.0,50.1,29.81,SSE,163,4.0,15.0,46,0.00,,CLR,0.00,VWS V14.01,2013-04-28 19:13:00,
2013-04-28 14:18:00,72.3,50.4,29.81,SW,215,11.0,15.0,46,0.00,,CLR,0.00,VWS V14.01,2013-04-28 19:18:00,
2013-04-28 14:24:00,72.7,51.3,29.81,SSW,207,5.0,15.0,47,0.00,,CLR,0.00,VWS V14.01,2013-04-28 19:24:00,
2013-04-28 14:29:00,73.1,51.1,29.81,WSW,239,6.0,15.0,46,0.00,,CLR,0.00,VWS V14.01,2013-04-28 19:29:00,
2013-04-28 14:34:00,72.4,51.0,29.81,SSE,153,4.0,15.0,47,0.00,,CLR,0.00,VWS V14.01,2013-04-28 19:34:00,
2013-04-28 14:39:00,72.8,50.8,29.80,South,190,8.0,15.0,46,0.00,,CLR,0.00,VWS V14.01,2013-04-28 19:39:00,
2013-04-28 14:44:00,73.0,51.6,29.80,SSW,204,4.0,15.0,47,0.00,,CLR,0.00,VWS V14.01,2013-04-28 19:44:00,
2013-04-28 14:49:00,73.5,50.9,29.80,SSE,163,7.0,15.0,45,0.00,,CLR,0.00,VWS V14.01,2013-04-28 19:49:00,
2013-04-28 14:54:00,73.3,51.3,29.80,SSW,198,7.0,15.0,46,0.00,,CLR,0.00,VWS V14.01,2013-04-28 19:54:00,
2013-04-28 14:59:00,73.1,50.5,29.80,SW,219,5.0,15.0,45,0.00,,CLR,0.00,VWS V14.01,2013-04-28 19:59:00,
2013-04-28 15:04:00,73.6,49.8,29.79,SSW,198,8.0,8.0,43,0.00,,CLR,0.00,VWS V14.01,2013-04-28 20:04:00,
2013-04-28 15:09:00,72.6,50.1,29.79,SSW,195,16.0,16.0,45,0.00,,CLR,0.00,VWS V14.01,2013-04-28 20:09:00,
2013-04-28 15:14:00,72.8,50.8,29.78,SW,214,7.0,16.0,46,0.00,,CLR,0.00,VWS V14.01,2013-04-28 20:14:00,
2013-04-28 15:19:00,73.4,50.8,29.78,South,175,5.0,16.0,45,0.00,,CLR,0.00,VWS V14.01,2013-04-28 20:19:00,
2013-04-28 15:24:00,73.7,50.5,29.78,SSW,208,7.0,16.0,44,0.00,,CLR,0.00,VWS V14.01,2013-04-28 20:24:00,
2013-04-28 15:29:00,73.2,50.0,29.78,South,182,3.0,16.0,44,0.00,,CLR,0.00,VWS V14.01,2013-04-28 20:29:00,
2013-04-28 15:34:00,73.7,50.5,29.78,South,178,3.0,16.0,44,0.00,,CLR,0.00,VWS V14.01,2013-04-28 20:34:00,
2013-04-28 15:39:00,73.6,49.8,29.78,SSW,205,8.0,16.0,43,0.00,,CLR,0.00,VWS V14.01,2013-04-28 20:39:00,
2013-04-28 15:44:00,74.0,50.7,29.77,South,188,4.0,16.0,44,0.00,,CLR,0.00,VWS V14.01,2013-04-28 20:44:00,
2013-04-28 15:49:00,74.6,50.7,29.77,SSW,196,4.0,16.0,43,0.00,,CLR,0.00,VWS V14.01,2013-04-28 20:49:00,
2013-04-28 15:54:00,73.7,49.8,29.77,WSW,248,4.0,16.0,43,0.00,,CLR,0.00,VWS V14.01,2013-04-28 20:54:00,
2013-04-28 15:59:00,73.8,50.5,29.77,SSW,208,7.0,16.0,44,0.00,,CLR,0.00,VWS V14.01,2013-04-28 20:59:00,
2013-04-28 16:04:00,74.4,51.7,29.76,SW,231,5.0,9.0,45,0.00,,CLR,0.00,VWS V14.01,2013-04-28 21:04:00,
2013-04-28 16:09:00,74.3,49.8,29.76,South,170,3.0,9.0,42,0.00,,CLR,0.00,VWS V14.01,2013-04-28 21:09:00,
2013-04-28 16:14:00,74.3,51.0,29.76,SSE,162,9.0,11.0,44,0.00,,CLR,0.00,VWS V14.01,2013-04-28 21:14:00,
2013-04-28 16:19:00,74.4,51.7,29.76,SE,129,6.0,12.0,45,0.00,,CLR,0.00,VWS V14.01,2013-04-28 21:19:00,
2013-04-28 16:25:00,74.3,49.1,29.76,SSE,161,6.0,12.0,41,0.00,,CLR,0.00,VWS V14.01,2013-04-28 21:25:00,
2013-04-28 16:30:00,74.6,51.3,29.76,SSW,196,6.0,12.0,44,0.00,,CLR,0.00,VWS V14.01,2013-04-28 21:30:00,
2013-04-28 16:35:00,74.3,51.0,29.76,SE,146,4.0,12.0,44,0.00,,CLR,0.00,VWS V14.01,2013-04-28 21:35:00,
2013-04-28 16:40:00,74.5,51.2,29.76,SSE,153,3.0,12.0,44,0.00,,CLR,0.00,VWS V14.01,2013-04-28 21:40:00,
2013-04-28 16:45:00,74.3,51.0,29.75,SSW,202,6.0,12.0,44,0.00,,CLR,0.00,VWS V14.01,2013-04-28 21:45:00,
2013-04-28 16:50:00,74.4,51.1,29.75,South,172,6.0,12.0,44,0.00,,CLR,0.00,VWS V14.01,2013-04-28 21:50:00,
2013-04-28 16:55:00,74.4,51.1,29.75,SSE,165,3.0,12.0,44,0.00,,CLR,0.00,VWS V14.01,2013-04-28 21:55:00,
2013-04-28 17:00:00,74.8,50.8,29.75,SSW,210,7.0,12.0,43,0.00,,CLR,0.00,VWS V14.01,2013-04-28 22:00:00,
2013-04-28 17:05:00,74.0,50.7,29.75,SSW,202,5.0,13.0,44,0.00,,CLR,0.00,VWS V14.01,2013-04-28 22:05:00,
2013-04-28 17:10:00,74.1,50.2,29.75,SW,221,6.0,13.0,43,0.00,,CLR,0.00,VWS V14.01,2013-04-28 22:10:00,
2013-04-28 17:15:00,74.3,49.8,29.74,South,180,3.0,13.0,42,0.00,,CLR,0.00,VWS V14.01,2013-04-28 22:15:00,
2013-04-28 17:20:00,74.3,51.0,29.74,SSW,212,11.0,13.0,44,0.00,,CLR,0.00,VWS V14.01,2013-04-28 22:20:00,
2013-04-28 17:25:00,73.7,49.8,29.74,SSW,209,9.0,13.0,43,0.00,,CLR,0.00,VWS V14.01,2013-04-28 22:25:00,
2013-04-28 17:30:00,74.3,51.0,29.74,SE,144,6.0,13.0,44,0.00,,CLR,0.00,VWS V14.01,2013-04-28 22:30:00,
2013-04-28 17:35:00,74.0,50.7,29.74,South,169,6.0,13.0,44,0.00,,CLR,0.00,VWS V14.01,2013-04-28 22:35:00,
2013-04-28 17:40:00,73.9,50.6,29.74,SW,229,5.0,13.0,44,0.00,,CLR,0.00,VWS V14.01,2013-04-28 22:40:00,
2013-04-28 17:45:00,74.0,50.7,29.74,SSE,155,6.0,13.0,44,0.00,,CLR,0.00,VWS V14.01,2013-04-28 22:45:00,
2013-04-28 17:50:00,73.9,51.2,29.74,SSW,195,7.0,13.0,45,0.00,,CLR,0.00,VWS V14.01,2013-04-28 22:50:00,
2013-04-28 17:55:00,73.6,51.0,29.74,South,169,3.0,13.0,45,0.00,,CLR,0.00,VWS V14.01,2013-04-28 22:55:00,
2013-04-28 18:00:00,73.7,50.5,29.74,SW,221,5.0,8.0,44,0.00,,CLR,0.00,VWS V14.01,2013-04-28 23:00:00,
2013-04-28 18:05:00,73.6,50.4,29.74,SSE,167,6.0,12.0,44,0.00,,CLR,0.00,VWS V14.01,2013-04-28 23:05:00,
2013-04-28 18:10:00,73.5,49.7,29.74,South,172,6.0,13.0,43,0.00,,CLR,0.00,VWS V14.01,2013-04-28 23:10:00,
2013-04-28 18:15:00,73.4,51.4,29.73,SSW,207,6.0,13.0,46,0.00,,CLR,0.00,VWS V14.01,2013-04-28 23:15:00,
2013-04-28 18:20:00,73.6,51.0,29.73,SE,136,4.0,13.0,45,0.00,,CLR,0.00,VWS V14.01,2013-04-28 23:20:00,
2013-04-28 18:25:00,73.4,50.2,29.73,SW,214,4.0,13.0,44,0.00,,CLR,0.00,VWS V14.01,2013-04-28 23:25:00,
2013-04-28 18:30:00,73.7,51.7,29.73,SSW,194,4.0,13.0,46,0.00,,CLR,0.00,VWS V14.01,2013-04-28 23:30:00,
2013-04-28 18:35:00,73.5,51.5,29.73,SSW,193,8.0,13.0,46,0.00,,CLR,0.00,VWS V14.01,2013-04-28 23:35:00,
2013-04-28 18:41:00,73.1,51.1,29.73,SSW,204,4.0,13.0,46,0.00,,CLR,0.00,VWS V14.01,2013-04-28 23:41:00,
2013-04-28 18:46:00,73.2,50.6,29.73,SSE,159,4.0,13.0,45,0.00,,CLR,0.00,VWS V14.01,2013-04-28 23:46:00,
2013-04-28 18:51:00,73.1,51.1,29.73,SE,146,5.0,13.0,46,0.00,,CLR,0.00,VWS V14.01,2013-04-28 23:51:00,
2013-04-28 18:56:00,72.9,50.3,29.72,SSW,211,2.0,13.0,45,0.00,,CLR,0.00,VWS V14.01,2013-04-28 23:56:00,
2013-04-28 19:01:00,72.8,50.8,29.72,South,176,5.0,5.0,46,0.00,,CLR,0.00,VWS V14.01,2013-04-29 00:01:00,
2013-04-28 19:06:00,72.4,51.0,29.72,South,189,3.0,11.0,47,0.00,,CLR,0.00,VWS V14.01,2013-04-29 00:06:00,
2013-04-28 19:11:00,72.5,50.6,29.72,SSE,159,4.0,11.0,46,0.00,,CLR,0.00,VWS V14.01,2013-04-29 00:11:00,
2013-04-28 19:16:00,72.5,51.2,29.72,SSW,197,6.0,11.0,47,0.00,,CLR,0.00,VWS V14.01,2013-04-29 00:16:00,
2013-04-28 19:21:00,72.3,50.4,29.72,South,174,5.0,11.0,46,0.00,,CLR,0.00,VWS V14.01,2013-04-29 00:21:00,
2013-04-28 19:26:00,72.0,50.1,29.72,South,177,4.0,11.0,46,0.00,,CLR,0.00,VWS V14.01,2013-04-29 00:26:00,
2013-04-28 19:31:00,71.6,50.9,29.72,South,169,4.0,11.0,48,0.00,,CLR,0.00,VWS V14.01,2013-04-29 00:31:00,
2013-04-28 19:36:00,71.6,50.3,29.72,South,181,5.0,11.0,47,0.00,,CLR,0.00,VWS V14.01,2013-04-29 00:36:00,
2013-04-28 19:41:00,71.1,50.4,29.72,South,182,1.0,11.0,48,0.00,,CLR,0.00,VWS V14.01,2013-04-29 00:41:00,
2013-04-28 19:46:00,70.8,50.7,29.72,South,180,1.0,11.0,49,0.00,,CLR,0.00,VWS V14.01,2013-04-29 00:46:00,
2013-04-28 19:51:00,70.6,50.5,29.72,SE,138,4.0,11.0,49,0.00,,CLR,0.00,VWS V14.01,2013-04-29 00:51:00,
2013-04-28 19:56:00,70.2,50.7,29.73,South,183,1.0,11.0,50,0.00,,CLR,0.00,VWS V14.01,2013-04-29 00:56:00,
2013-04-28 20:01:00,69.8,50.9,29.73,South,186,2.0,6.0,51,0.00,,CLR,0.00,VWS V14.01,2013-04-29 01:01:00,
2013-04-28 20:06:00,69.3,51.5,29.73,SE,138,1.0,6.0,53,0.00,,CLR,0.00,VWS V14.01,2013-04-29 01:06:00,
2013-04-28 20:11:00,68.4,51.6,29.73,SSE,155,1.0,6.0,55,0.00,,CLR,0.00,VWS V14.01,2013-04-29 01:11:00,
2013-04-28 20:16:00,68.1,51.3,29.73,SSE,155,1.0,6.0,55,0.00,,CLR,0.00,VWS V14.01,2013-04-29 01:16:00,
2013-04-28 20:22:00,67.6,51.8,29.73,SE,139,2.0,6.0,57,0.00,,CLR,0.00,VWS V14.01,2013-04-29 01:22:00,
2013-04-28 20:27:00,67.2,51.5,29.73,South,174,2.0,6.0,57,0.00,,CLR,0.00,VWS V14.01,2013-04-29 01:27:00,
2013-04-28 20:32:00,66.9,51.7,29.73,South,178,2.0,6.0,58,0.00,,CLR,0.00,VWS V14.01,2013-04-29 01:32:00,
2013-04-28 20:37:00,66.6,51.8,29.73,South,186,3.0,6.0,59,0.00,,CLR,0.00,VWS V14.01,2013-04-29 01:37:00,
2013-04-28 20:42:00,66.2,51.5,29.73,South,180,2.0,6.0,59,0.00,,CLR,0.00,VWS V14.01,2013-04-29 01:42:00,
2013-04-28 20:47:00,65.9,51.6,29.73,South,174,2.0,6.0,60,0.00,,CLR,0.00,VWS V14.01,2013-04-29 01:47:00,
2013-04-28 20:52:00,65.8,51.5,29.74,South,171,2.0,7.0,60,0.00,,CLR,0.00,VWS V14.01,2013-04-29 01:52:00,
2013-04-28 20:57:00,65.4,51.6,29.74,SSE,161,4.0,7.0,61,0.00,,CLR,0.00,VWS V14.01,2013-04-29 01:57:00,
2013-04-28 21:02:00,65.1,51.3,29.74,SSW,209,1.0,4.0,61,0.00,,CLR,0.00,VWS V14.01,2013-04-29 02:02:00,
2013-04-28 21:07:00,64.9,51.6,29.74,SSE,161,3.0,6.0,62,0.00,,CLR,0.00,VWS V14.01,2013-04-29 02:07:00,
2013-04-28 21:12:00,64.6,51.7,29.74,SSE,158,5.0,8.0,63,0.00,,CLR,0.00,VWS V14.01,2013-04-29 02:12:00,
2013-04-28 21:17:00,64.3,51.5,29.74,SSW,192,2.0,8.0,63,0.00,,CLR,0.00,VWS V14.01,2013-04-29 02:17:00,
2013-04-28 21:22:00,64.1,51.3,29.75,South,185,2.0,8.0,63,0.00,,CLR,0.00,VWS V14.01,2013-04-29 02:22:00,
2013-04-28 21:27:00,63.8,51.4,29.74,SSE,154,6.0,8.0,64,0.00,,CLR,0.00,VWS V14.01,2013-04-29 02:27:00,
2013-04-28 21:32:00,63.6,51.6,29.75,South,182,4.0,8.0,65,0.00,,CLR,0.00,VWS V14.01,2013-04-29 02:32:00,
2013-04-28 21:37:00,63.6,51.6,29.75,SSE,168,3.0,8.0,65,0.00,,CLR,0.00,VWS V14.01,2013-04-29 02:37:00,
2013-04-28 21:42:00,63.5,51.5,29.75,SSE,165,4.0,8.0,65,0.00,,CLR,0.00,VWS V14.01,2013-04-29 02:42:00,
2013-04-28 21:47:00,63.4,51.4,29.75,South,191,4.0,8.0,65,0.00,,CLR,0.00,VWS V14.01,2013-04-29 02:47:00,
2013-04-28 21:52:00,63.1,51.2,29.75,South,182,2.0,9.0,65,0.00,,CLR,0.00,VWS V14.01,2013-04-29 02:52:00,
2013-04-28 21:57:00,62.9,51.4,29.75,South,180,4.0,9.0,66,0.00,,CLR,0.00,VWS V14.01,2013-04-29 02:57:00,
2013-04-28 22:02:00,62.7,51.2,29.75,SSW,193,2.0,4.0,66,0.00,,CLR,0.00,VWS V14.01,2013-04-29 03:02:00,
2013-04-28 22:07:00,62.7,51.2,29.75,SE,138,3.0,6.0,66,0.00,,CLR,0.00,VWS V14.01,2013-04-29 03:07:00,
2013-04-28 22:12:00,62.5,51.0,29.75,South,182,2.0,8.0,66,0.00,,CLR,0.00,VWS V14.01,2013-04-29 03:12:00,
2013-04-28 22:18:00,62.3,51.2,29.75,South,171,3.0,8.0,67,0.00,,CLR,0.00,VWS V14.01,2013-04-29 03:18:00,
2013-04-28 22:23:00,62.1,51.4,29.75,SSE,165,3.0,8.0,68,0.00,,CLR,0.00,VWS V14.01,2013-04-29 03:23:00,
2013-04-28 22:28:00,61.9,51.2,29.75,SSE,159,3.0,8.0,68,0.00,,CLR,0.00,VWS V14.01,2013-04-29 03:28:00,
2013-04-28 22:33:00,61.8,51.1,29.75,South,173,2.0,8.0,68,0.00,,CLR,0.00,VWS V14.01,2013-04-29 03:33:00,
2013-04-28 22:38:00,61.6,51.0,29.75,South,184,2.0,8.0,68,0.00,,CLR,0.00,VWS V14.01,2013-04-29 03:38:00,
2013-04-28 22:43:00,61.5,51.2,29.75,SE,126,4.0,8.0,69,0.00,,CLR,0.00,VWS V14.01,2013-04-29 03:43:00,
2013-04-28 22:48:00,61.2,51.0,29.75,South,183,3.0,9.0,69,0.00,,CLR,0.00,VWS V14.01,2013-04-29 03:48:00,
2013-04-28 22:53:00,61.2,51.0,29.75,South,190,3.0,9.0,69,0.00,,CLR,0.00,VWS V14.01,2013-04-29 03:53:00,
2013-04-28 22:58:00,61.3,51.1,29.75,South,184,1.0,9.0,69,0.00,,CLR,0.00,VWS V14.01,2013-04-29 03:58:00,
2013-04-28 23:01:00,61.3,51.1,29.76,SSW,208,1.0,5.0,69,0.00,,CLR,0.00,VWS V14.01,2013-04-29 04:01:00,
2013-04-28 23:06:00,60.7,50.9,29.77,SW,215,0.0,5.0,70,0.00,,CLR,0.00,VWS V14.01,2013-04-29 04:06:00,
2013-04-28 23:11:00,60.0,50.6,29.77,SW,215,1.0,5.0,71,0.00,,CLR,0.00,VWS V14.01,2013-04-29 04:11:00,
2013-04-28 23:16:00,59.4,50.4,29.77,SW,214,3.0,5.0,72,0.00,,CLR,0.00,VWS V14.01,2013-04-29 04:16:00,
2013-04-28 23:21:00,59.2,50.6,29.76,SSW,209,1.0,5.0,73,0.00,,CLR,0.00,VWS V14.01,2013-04-29 04:21:00,
2013-04-28 23:26:00,59.3,51.0,29.76,South,181,5.0,5.0,74,0.00,,CLR,0.00,VWS V14.01,2013-04-29 04:26:00,
2013-04-28 23:31:00,59.2,50.6,29.77,SW,223,1.0,5.0,73,0.00,,CLR,0.00,VWS V14.01,2013-04-29 04:31:00,
2013-04-28 23:36:00,58.8,50.5,29.77,SSW,210,3.0,5.0,74,0.00,,CLR,0.00,VWS V14.01,2013-04-29 04:36:00,
2013-04-28 23:41:00,58.7,50.5,29.76,SSW,210,0.0,5.0,74,0.00,,CLR,0.00,VWS V14.01,2013-04-29 04:41:00,
2013-04-28 23:46:00,58.6,50.7,29.76,South,191,1.0,5.0,75,0.00,,CLR,0.00,VWS V14.01,2013-04-29 04:46:00,
2013-04-28 23:52:00,58.7,50.5,29.76,South,187,1.0,5.0,74,0.00,,CLR,0.00,VWS V14.01,2013-04-29 04:52:00,
2013-04-28 23:57:00,58.6,50.7,29.75,South,179,0.0,5.0,75,0.00,,CLR,0.00,VWS V14.01,2013-04-29 04:57:00,